Location: Valdosta
(30.8330°N, 83.2790°W)
Time: 00:20:41
(UTC-04:00)

Star 48 S/N 10029-3 - Visible Passes

Search period start: 20 October 2014 00:00
Search period end: 30 October 2014 00:00
Orbit: 219 x 307 km, 27.6° (Epoch: 19 October)

Date Brightness Start Highest point End Pass type
(mag) Time Alt. Az. Time Alt. Az. Time Alt. Az.
20 Oct 6.1 20:34:31 10° WSW 20:35:42 20° SW 20:35:42 20° SW visible
21 Oct 6.0 20:28:55 10° WSW 20:30:21 20° SW 20:30:21 20° SW visible
22 Oct 6.1 20:23:16 10° WSW 20:24:52 16° SSW 20:24:52 16° SSW visible
23 Oct 6.4 20:17:47 10° SW 20:18:53 12° SSW 20:19:19 12° S visible
